Elefsis, Greece

3:16 AM EEST on April 21, 2018 (GMT +0300)
Elefsis Air Base

Weather History for LGEL - October, 2014

Change the Weather History Date:

Sunday, October 5, 2014

  Actual Average Record
Temperature  
Mean Temperature 66 °F -  
Max Temperature 73 °F 70 °F 86 °F (2001)
Min Temperature 60 °F 56 °F 51 °F (2013)
Cooling Degree Days 2    
Growing Degree Days 16 (Base 50)    
Moisture  
Dew Point 49 °F    
Average Humidity 54    
Maximum Humidity 68    
Minimum Humidity 28    
Precipitation  
Precipitation 0.00 in - - ()
Sea Level Pressure  
Sea Level Pressure 30.08 in    
Wind  
Wind Speed 5 mph ()    
Max Wind Speed 14 mph    
Max Gust Speed -    
Visibility 6.2 miles    
Events      
Averages and records for this station are not official NWS values.
T = Trace of Precipitation, MM = Missing Value Source: Averaged Metar Reports

Daily Weather History Graph

Daily Weather History Graph

Search for Another Location

Airport or City:

Astronomy

Oct. 05, 2014 Rise Set
Actual Time 7:24 AM EEST 7:03 PM EEST
Civil Twilight 6:58 AM EEST 7:29 PM EEST
Nautical Twilight 6:27 AM EEST 7:59 PM EEST
Astronomical Twilight 5:57 AM EEST 8:30 PM EEST
Moon 5:05 PM EEST (10/5) 3:43 AM EEST (10/5)
Length of Visible Light 12h 30m
Length of Day
11h 38m
Waxing Gibbous, 87% of the Moon is Illuminated
Oct 5
Waxing Gibbous
Oct 8
Full
Oct 15
Last Quarter
Oct 24
New
Oct 31
First Quarter

Hourly Weather History & Observations

Time (EEST) Temp. Dew Point Humidity Pressure Visibility Wind Dir Wind Speed Gust Speed Precip Events Conditions
12:00 AM 64 °F 46 °F 42% 30.11 in 6 mi NNW 5.8 mph - -   Scattered Clouds
12:20 AM 64.4 °F 46.4 °F 52% 30.09 in 6.2 mi NNW 8.1 mph - N/A   Scattered Clouds
12:50 AM 62.6 °F 46.4 °F 55% 30.09 in 6.2 mi NNW 8.1 mph - N/A   Scattered Clouds
1:20 AM 60.8 °F 46.4 °F 59% 30.09 in 6.2 mi NNW 8.1 mph - N/A   Scattered Clouds
1:50 AM 60.8 °F 46.4 °F 59% 30.09 in 6.2 mi NNW 8.1 mph - N/A   Scattered Clouds
2:20 AM 60.8 °F 46.4 °F 59% 30.09 in 6.2 mi NNW 8.1 mph - N/A   Scattered Clouds
2:50 AM 60.8 °F 46.4 °F 59% 30.06 in 6.2 mi NW 9.2 mph - N/A   Scattered Clouds
3:00 AM 61 °F 47 °F 49% 30.09 in 6 mi NW 9.2 mph - -   Scattered Clouds
3:20 AM 60.8 °F 46.4 °F 59% 30.06 in 6.2 mi NW 11.5 mph - N/A   Scattered Clouds
3:50 AM 62.6 °F 46.4 °F 55% 30.06 in 6.2 mi NNW 11.5 mph - N/A   Scattered Clouds
4:20 AM 62.6 °F 46.4 °F 55% 30.06 in 6.2 mi NW 11.5 mph - N/A   Scattered Clouds
4:50 AM 62.6 °F 46.4 °F 55% 30.04 in 6.2 mi NNW 13.8 mph - N/A   Scattered Clouds
5:20 AM 62.6 °F 48.2 °F 59% 30.04 in 6.2 mi NW 11.5 mph - N/A   Scattered Clouds
5:50 AM 62.6 °F 48.2 °F 59% 30.04 in 6.2 mi NNW 13.8 mph - N/A   Partly Cloudy
6:00 AM 62 °F 47 °F 48% 30.06 in 6 mi NNW 13.8 mph - -   Scattered Clouds
6:20 AM 60.8 °F 48.2 °F 63% 30.06 in 6.2 mi NNW 9.2 mph - N/A   Partly Cloudy
6:50 AM 60.8 °F 48.2 °F 63% 30.06 in 6.2 mi Calm Calm - N/A   Partly Cloudy
7:20 AM 62.6 °F 48.2 °F 59% 30.06 in 6.2 mi NNW 4.6 mph - N/A   Partly Cloudy
7:50 AM 62.6 °F 48.2 °F 59% 30.06 in 6.2 mi NNW 8.1 mph - N/A   Scattered Clouds
8:20 AM 64.4 °F 48.2 °F 56% 30.06 in 6.2 mi NW 8.1 mph - N/A   Scattered Clouds
8:50 AM 64.4 °F 48.2 °F 56% 30.06 in 6.2 mi NNW 5.8 mph - N/A   Mostly Cloudy
9:00 AM 64 °F 49 °F 48% 30.09 in 6 mi NNW 5.8 mph - -   Partly Cloudy
9:20 AM 64.4 °F 48.2 °F 56% 30.09 in 6.2 mi North 5.8 mph - N/A   Mostly Cloudy
9:50 AM 66.2 °F 48.2 °F 52% 30.09 in 6.2 mi NNW 9.2 mph - N/A   Mostly Cloudy
10:20 AM 66.2 °F 50.0 °F 56% 30.09 in 6.2 mi NW 5.8 mph - N/A   Mostly Cloudy
10:50 AM 68.0 °F 48.2 °F 49% 30.09 in 6.2 mi Calm Calm - N/A   Mostly Cloudy
11:20 AM 69.8 °F 48.2 °F 46% 30.09 in 6.2 mi Calm Calm - N/A   Mostly Cloudy
11:50 AM 69.8 °F 48.2 °F 46% 30.09 in 6.2 mi Calm Calm - N/A   Mostly Cloudy
12:00 PM 71 °F 48 °F 33% 30.11 in 6 mi Calm Calm - -   Partly Cloudy
12:20 PM 69.8 °F 48.2 °F 46% 30.09 in 6.2 mi WSW 4.6 mph - N/A   Mostly Cloudy
12:50 PM 69.8 °F 48.2 °F 46% 30.09 in 6.2 mi Calm Calm - N/A   Mostly Cloudy
1:20 PM 69.8 °F 48.2 °F 46% 30.09 in 6.2 mi Calm Calm - N/A   Mostly Cloudy
1:50 PM 71.6 °F 48.2 °F 43% 30.09 in 6.2 mi SSE 4.6 mph - N/A   Mostly Cloudy
2:20 PM 71.6 °F 48.2 °F 43% 30.06 in 6.2 mi Calm Calm - N/A   Mostly Cloudy
2:50 PM 73.4 °F 46.4 °F 38% 30.06 in 6.2 mi Calm Calm - N/A   Mostly Cloudy
3:00 PM 73 °F 47 °F 28% 30.09 in 6 mi Calm Calm - -   Partly Cloudy
3:20 PM 71.6 °F 46.4 °F 41% 30.06 in 6.2 mi Calm Calm - N/A   Mostly Cloudy
3:50 PM 69.8 °F 50.0 °F 49% 30.09 in 6.2 mi SW 9.2 mph - N/A   Drizzle
4:20 PM 68.0 °F 51.8 °F 56% 30.09 in 6.2 mi NW 5.8 mph - N/A   Drizzle
4:50 PM 66.2 °F 55.4 °F 68% 30.09 in 6.2 mi NNW 4.6 mph - N/A   Mostly Cloudy
5:20 PM 68.0 °F 53.6 °F 60% 30.09 in 6.2 mi NNW 4.6 mph - N/A   Mostly Cloudy
5:50 PM 68.0 °F 51.8 °F 56% 30.09 in 6.2 mi Calm Calm - N/A   Mostly Cloudy
6:00 PM 68 °F 52 °F 46% 30.10 in 6 mi Calm Calm - -   Partly Cloudy
6:20 PM 68.0 °F 51.8 °F 56% 30.09 in 6.2 mi Calm Calm - N/A   Mostly Cloudy
6:50 PM 68.0 °F 51.8 °F 56% 30.09 in 6.2 mi Calm Calm - N/A   Mostly Cloudy
7:20 PM 66.2 °F 51.8 °F 60% 30.09 in 6.2 mi Calm Calm - N/A   Mostly Cloudy
7:50 PM 64.4 °F 53.6 °F 68% 30.09 in 6.2 mi Calm Calm - N/A   Mostly Cloudy
8:20 PM 64.4 °F 53.6 °F 68% 30.09 in 6.2 mi Calm Calm - N/A   Mostly Cloudy
8:50 PM 64.4 °F 53.6 °F 68% 30.09 in 6.2 mi Calm Calm - N/A   Mostly Cloudy
9:00 PM 65 °F 53 °F 57% 30.11 in 6 mi ENE 2.3 mph - -   Partly Cloudy
9:20 PM 64.4 °F 53.6 °F 68% 30.09 in 6.2 mi Calm Calm - N/A   Mostly Cloudy
9:50 PM 66.2 °F 51.8 °F 60% 30.12 in 6.2 mi Calm Calm - N/A   Mostly Cloudy
10:20 PM 66.2 °F 51.8 °F 60% 30.12 in 6.2 mi Calm Calm - N/A   Mostly Cloudy
10:50 PM 66.2 °F 51.8 °F 60% 30.12 in 6.2 mi NE 4.6 mph - N/A   Mostly Cloudy
11:20 PM 66.2 °F 51.8 °F 60% 30.12 in 6.2 mi Calm Calm - N/A   Mostly Cloudy
11:50 PM 66.2 °F 51.8 °F 60% 30.09 in 6.2 mi ENE 3.5 mph - N/A   Mostly Cloudy